Cherokee, IA

11:54 PM CDT on August 29, 2016 (GMT -0500)
Cherokee Municipal

Weather History for KCKP - November, 2011

Change the Weather History Date:

Monday, November 14, 2011

  Actual Average Record
Temperature  
Mean Temperature 40 °F -  
Max Temperature 53 °F 43 °F 70 °F (1953)
Min Temperature 28 °F 23 °F -17 °F (1959)
Degree Days  
Heating Degree Days 24    
Moisture  
Dew Point 27 °F    
Average Humidity 63    
Maximum Humidity 100    
Minimum Humidity 28    
Precipitation  
Precipitation 0.00 in - - ()
Sea Level Pressure  
Sea Level Pressure 29.55 in    
Wind  
Wind Speed 4 mph (WSW)    
Max Wind Speed 16 mph    
Max Gust Speed 25 mph    
Visibility 10 miles    
Events      
Averages and records for this station are not official NWS values.
T = Trace of Precipitation, MM = Missing Value Source: NWS Daily Summary

Daily Weather History Graph

Daily Weather History Graph

Search for Another Location

Airport or City:

Trip Planner

Search our weather history database for the weather conditions in past years. The results will help you decide how hot, cold, wet, or windy it might be!

Date:

Astronomy

Nov. 14, 2011 Rise Set
Actual Time 7:12 AM CST 5:00 PM CST
Civil Twilight 6:42 AM CST 5:30 PM CST
Nautical Twilight 6:07 AM CST 6:04 PM CST
Astronomical Twilight 5:34 AM CST 6:38 PM CST
Moon 8:06 PM CST (11/14) 10:33 AM CST (11/14)
Length of Visible Light 10h 48m
Length of Day
9h 48m
Waning Gibbous, 86% of the Moon is Illuminated
Nov 14
Waning Gibbous
Nov 18
Last Quarter
Nov 25
New
Dec 2
First Quarter
Dec 10
Full

Hourly Weather History & Observations

Time (CST) Temp. Windchill Dew Point Humidity Pressure Visibility Wind Dir Wind Speed Gust Speed Precip Events Conditions
12:15 AM 32.0 °F - 30.2 °F 93% 29.53 in 10.0 mi Calm Calm - N/A   Clear
12:35 AM 32.0 °F - 28.4 °F 87% 29.53 in 10.0 mi Calm Calm - N/A   Clear
12:55 AM 32.0 °F - 28.4 °F 87% 29.52 in 10.0 mi Calm Calm - N/A   Clear
1:15 AM 32.0 °F - 30.2 °F 93% 29.52 in 10.0 mi Calm Calm - N/A   Clear
1:35 AM 30.2 °F - 28.4 °F 93% 29.52 in 10.0 mi Calm Calm - N/A   Clear
1:55 AM 30.2 °F - 28.4 °F 93% 29.51 in 10.0 mi Calm Calm - N/A   Clear
2:15 AM 30.2 °F - 28.4 °F 93% 29.51 in 10.0 mi Calm Calm - N/A   Clear
2:35 AM 28.4 °F - 28.4 °F 100% 29.49 in 10.0 mi Calm Calm - N/A   Clear
2:55 AM 30.2 °F - 30.2 °F 100% 29.48 in 10.0 mi Calm Calm - N/A   Clear
3:35 AM 30.2 °F - 28.4 °F 93% 29.47 in 10.0 mi Calm Calm - N/A   Clear
3:55 AM 30.2 °F - 28.4 °F 93% 29.46 in 10.0 mi Calm Calm - N/A   Clear
4:15 AM 30.2 °F - 30.2 °F 100% 29.47 in 10.0 mi Calm Calm - N/A   Scattered Clouds
4:35 AM 32.0 °F - 30.2 °F 93% 29.46 in 10.0 mi Calm Calm - N/A   Scattered Clouds
4:55 AM 32.0 °F - 30.2 °F 93% 29.46 in 10.0 mi Calm Calm - N/A   Mostly Cloudy
5:15 AM 32.0 °F - 32.0 °F 100% 29.47 in 10.0 mi Calm Calm - N/A   Overcast
5:35 AM 35.6 °F 31.7 °F 32.0 °F 87% 29.46 in 10.0 mi SSE 4.6 mph - N/A   Overcast
6:15 AM 32.0 °F 28.7 °F 32.0 °F 100% 29.47 in 10.0 mi South 3.5 mph - N/A   Clear
6:35 AM 37.4 °F 32.8 °F 33.8 °F 87% 29.47 in 10.0 mi South 5.8 mph - N/A   Scattered Clouds
6:55 AM 37.4 °F 34.9 °F 32.0 °F 81% 29.48 in 10.0 mi NE 3.5 mph - N/A   Clear
7:35 AM 35.6 °F 31.7 °F 32.0 °F 87% 29.51 in 10.0 mi WSW 4.6 mph - N/A   Clear
7:55 AM 37.4 °F 33.8 °F 32.0 °F 81% 29.52 in 10.0 mi SW 4.6 mph - N/A   Clear
8:35 AM 41.0 °F 35.8 °F 32.0 °F 70% 29.54 in 10.0 mi West 8.1 mph - N/A   Clear
8:55 AM 41.0 °F 36.4 °F 32.0 °F 70% 29.55 in 10.0 mi West 6.9 mph - N/A   Clear
9:15 AM 42.8 °F 37.5 °F 30.2 °F 61% 29.55 in 10.0 mi West 9.2 mph - N/A   Clear
9:35 AM 44.6 °F 38.4 °F 30.2 °F 57% 29.56 in 10.0 mi WNW 12.7 mph 17.3 mph N/A   Clear
9:55 AM 46.4 °F 41.5 °F 30.2 °F 53% 29.56 in 10.0 mi NW 10.4 mph 25.3 mph N/A   Clear
10:55 AM 50.0 °F - 30.2 °F 47% 29.56 in 10.0 mi WNW 12.7 mph 18.4 mph N/A   Clear
11:15 AM 50.0 °F - 30.2 °F 47% 29.57 in 10.0 mi West 12.7 mph 16.1 mph N/A   Clear
11:35 AM 51.8 °F - 30.2 °F 44% 29.59 in 10.0 mi West 11.5 mph - N/A   Clear
11:55 AM 51.8 °F - 28.4 °F 41% 29.60 in 10.0 mi West 15.0 mph 20.7 mph N/A   Clear
12:15 PM 51.8 °F - 28.4 °F 41% 29.60 in 10.0 mi West 13.8 mph 18.4 mph N/A   Clear
12:35 PM 53.6 °F - 26.6 °F 35% 29.60 in 10.0 mi West 11.5 mph 23.0 mph N/A   Clear
12:55 PM 53.6 °F - 24.8 °F 33% 29.60 in 10.0 mi West 15.0 mph 21.9 mph N/A   Clear
1:15 PM 53.6 °F - 24.8 °F 33% 29.60 in 10.0 mi West 11.5 mph 19.6 mph N/A   Clear
1:35 PM 53.6 °F - 24.8 °F 33% 29.60 in 10.0 mi West 12.7 mph 17.3 mph N/A   Clear
1:55 PM 53.6 °F - 23.0 °F 30% 29.59 in 10.0 mi West 15.0 mph 19.6 mph N/A   Clear
2:35 PM 53.6 °F - 23.0 °F 30% 29.58 in 10.0 mi WNW 10.4 mph 17.3 mph N/A   Clear
2:55 PM 53.6 °F - 21.2 °F 28% 29.57 in 10.0 mi West 11.5 mph 18.4 mph N/A   Clear
3:15 PM 53.6 °F - 23.0 °F 30% 29.57 in 10.0 mi West 10.4 mph - N/A   Clear
3:35 PM 53.6 °F - 23.0 °F 30% 29.58 in 10.0 mi West 16.1 mph 20.7 mph N/A   Clear
3:55 PM 53.6 °F - 21.2 °F 28% 29.59 in 10.0 mi West 10.4 mph 17.3 mph N/A   Clear
4:15 PM 53.6 °F - 23.0 °F 30% 29.59 in 10.0 mi West 6.9 mph - N/A   Clear
4:35 PM 51.8 °F - 23.0 °F 33% 29.60 in 10.0 mi West 6.9 mph - N/A   Clear
4:55 PM 46.4 °F 44.3 °F 21.2 °F 37% 29.60 in 10.0 mi WSW 4.6 mph - N/A   Clear
5:15 PM 46.4 °F 44.3 °F 21.2 °F 37% 29.61 in 10.0 mi South 4.6 mph - N/A   Clear
5:35 PM 44.6 °F 42.2 °F 21.2 °F 39% 29.61 in 4.0 mi SSE 4.6 mph - N/A   Haze
5:55 PM 39.2 °F 37.0 °F 21.2 °F 49% 29.62 in 7.0 mi South 3.5 mph - N/A   Clear
6:15 PM 37.4 °F - 21.2 °F 52% 29.62 in 10.0 mi Calm Calm - N/A   Clear
6:35 PM 37.4 °F - 21.2 °F 52% 29.62 in 7.0 mi Calm Calm - N/A   Clear
6:55 PM 37.4 °F - 21.2 °F 52% 29.62 in 10.0 mi Calm Calm - N/A   Clear
7:15 PM 35.6 °F - 23.0 °F 60% 29.62 in 10.0 mi Calm Calm - N/A   Clear
7:35 PM 33.8 °F 30.8 °F 21.2 °F 60% 29.62 in 10.0 mi SSE 3.5 mph - N/A   Clear
7:55 PM 35.6 °F 29.9 °F 21.2 °F 56% 29.62 in 10.0 mi SSE 6.9 mph - N/A   Clear
8:15 PM 35.6 °F - 21.2 °F 56% 29.61 in 10.0 mi Calm Calm - N/A   Clear
8:35 PM 33.8 °F 28.6 °F 21.2 °F 60% 29.61 in 10.0 mi SSE 5.8 mph - N/A   Clear
8:55 PM 33.8 °F - 23.0 °F 65% 29.61 in 10.0 mi Calm Calm - N/A   Clear
9:15 PM 35.6 °F - 23.0 °F 60% 29.61 in 10.0 mi Calm Calm - N/A   Clear
9:35 PM 33.8 °F 29.6 °F 21.2 °F 60% 29.61 in 10.0 mi SSE 4.6 mph - N/A   Clear
9:55 PM 33.8 °F - 21.2 °F 60% 29.61 in 10.0 mi Calm Calm - N/A   Clear
10:15 PM 35.6 °F 30.7 °F 23.0 °F 60% 29.62 in 10.0 mi SE 5.8 mph - N/A   Scattered Clouds
11:15 PM 35.6 °F - 26.6 °F 70% 29.60 in 10.0 mi Calm Calm - N/A   Overcast
11:35 PM 37.4 °F - 24.8 °F 60% 29.58 in 10.0 mi Calm Calm - N/A   Overcast
11:55 PM 39.2 °F - 26.6 °F 61% 29.58 in 10.0 mi Calm Calm - N/A   Overcast